Temp
3 3 3 4 4 4 3 4 3 3 3 3 3 3 4 4 4 4 4 5 6 8 9 13 13 13 14 15 16 13 12 11 10 13 15 16 16 17 16 17 16 17 16 16 16 16 17 15 15 16 16 15 15 16
3 3 3 3 3 4 4 4 3 3 3 3 3 4 4 4 4 4 4 5 6 6 7 9 11 11 10 11 14 12 14 13 14 14 13 14 14 14 17 19 14 15 16 17 17 17 15 14 14 14 14 15 15 16
2 3 3 3 3 3 4 4 3 3 2 3 3 3 5 5 5 4 4 5 6 6 6 7 9 9 8 8 8 14 13 14 12 12 13 13 14 14 16 16 16 15 13 15 15 15 15 15 14 14 14 14 13 13
2 2 3 3 3 3 3 3 3 3 2 3 2 3 6 5 6 5 4 5 6 7 6 8 8 7 6 6 7 8 10 9 11 11 12 13 14 12 15 13 14 14 13 15 15 15 14 13 13 13 13 12 12 12
2 2 2 2 2 2 2 3 3 3 2 2 2 5 6 7 7 6 5 5 6 7 7 8 6 5 5 6 7 8 10 11 12 11 11 13 11 12 12 11 14 13 15 15 16 14 15 14 13 12 13 13 12 12
2 2 2 2 2 2 2 2 2 3 2 2 3 6 6 7 7 5 5 5 5 7 5 6 6 6 5 7 8 9 10 10 11 12 11 10 8 11 12 13 13 12 11 11 13 11 11 12 11 10 11 11 11 11
1 1 2 2 2 2 2 2 2 3 2 2 4 5 5 5 5 6 7 6 6 7 6 5 5 4 6 6 6 7 7 8 10 9 10 10 9 10 11 12 10 10 10 10 9 9 11 11 11 10 9 9 8 8
1 1 2 2 2 2 2 2 2 2 1 2 5 5 5 5 6 6 6 7 6 6 6 6 5 4 4 5 6 6 7 8 8 8 8 9 7 9 10 10 8 8 8 9 8 7 7 8 8 9 8 8 9 9
1 1 1 1 2 2 2 2 2 2 1 2 6 6 5 5 5 5 6 5 5 6 5 5 6 6 2 4 4 4 7 7 6 8 9 8 9 9 10 8 7 6 6 6 6 6 8 7 7 7 7 8 8 8
1 1 1 1 1 1 1 1 1 1 1 2 5 4 3 4 5 6 5 5 5 6 5 6 4 5 4 4 6 6 7 7 7 7 6 7 9 7 6 5 5 5 4 4 3 6 5 5 6 6 6 6 7 7
0 1 1 1 1 1 1 1 1 0 1 1 1 3 2 4 4 3 4 4 4 5 5 4 6 5 3 6 6 6 7 7 8 7 8 7 8 6 5 5 4 4 3 3 3 3 4 4 4 5 6 5 5 5
0 0 1 1 1 1 1 1 1 0 -0 -1 0 1 2 2 3 5 6 5 6 6 5 5 5 5 3 5 5 5 6 6 8 6 7 8 6 4 4 3 3 3 3 3 3 3 3 3 3 4 3 3 3 2
0 0 0 0 0 1 1 1 1 0 -0 -0 0 2 3 3 5 6 6 6 6 5 4 5 5 5 4 6 5 6 7 7 6 7 8 7 4 4 3 3 2 2 3 2 2 2 2 2 2 2 3 2 3 3
0 0 0 0 0 1 0 1 2 1 0 1 2 2 3 2 3 2 4 4 2 4 4 4 5 5 4 6 6 7 5 6 7 7 7 5 4 3 2 2 3 2 2 2 -1 -1 -0 1 1 1 1 2 2 2
0 1 1 -0 0 0 0 2 2 2 1 1 2 2 2 1 1 1 2 2 1 3 4 4 5 6 5 6 6 5 5 6 7 6 4 3 3 2 2 2 2 2 2 1 1 -1 -1 -1 1 1 0 1 1 1
0 1 0 -1 -0 0 2 2 2 1 -1 0 1 1 1 1 1 1 1 1 0 2 3 4 5 6 5 6 6 6 7 7 5 4 3 3 2 2 2 2 2 2 2 2 1 -0 -1 -1 -0 -0 -0 0 0 1
0 -0 -1 -1 -0 2 1 1 0 -2 -2 -1 -0 -0 0 -0 0 0 1 0 0 2 3 4 5 4 4 5 4 3 4 3 3 3 3 3 3 2 2 1 1 1 1 0 -0 -1 -2 -2 -2 -1 -0 -0 -0 -0
-1 -1 -1 -1 0 0 -0 -2 -2 -1 -1 -2 -0 -1 1 0 1 1 1 1 2 1 2 2 2 3 4 4 3 2 2 2 2 2 2 2 1 0 0 0 -1 -1 -2 -2 -2 -2 -2 -2 -1 -0 -1 -1 -1 -1
-1 -1 -1 -0 -0 -1 -2 -2 -2 -2 -3 -3 -1 -1 -1 -0 -1 -1 -0 -0 0 1 2 1 1 2 2 2 2 1 1 2 2 2 1 0 0 -1 -1 -2 -2 -3 -3 -3 -2 -2 -2 -2 -2 -2 -2 -2 -1 -1
-0 -0 -1 -0 -0 -2 -2 -2 -2 -2 -2 -3 -2 -2 -2 -2 -3 -2 -1 -2 -0 1 -0 0 -0 -1 -0 -1 -1 -0 -0 0 2 2 1 -0 -1 -2 -3 -3 -2 -3 -2 -2 -2 -2 -1 -2 -3 -3 -2 -2 -2 -2
-0 -1 -2 -1 -2 -3 -3 -3 -2 -2 -2 -2 -4 -2 -2 -2 -2 -2 -2 -2 -2 -2 -1 -2 -2 -2 -2 -2 -2 -1 -1 -1 -1 -0 -0 -0 -2 -2 -3 -4 -3 -3 -3 -3 -3 -3 -3 -4 -4 -4 -4 -4 -4 -4
-2 -2 -3 -2 -4 -4 -4 -6 -4 -3 -2 -4 -4 -3 -3 -3 -3 -3 -4 -2 -2 -3 -3 -2 -3 -2 -2 -3 -4 -4 -4 -2 -2 -2 -3 -2 -2 -2 -3 -5 -4 -5 -5 -6 -5 -5 -5 -5 -5 -6 -6 -5 -6 -6
-2 -3 -3 -4 -4 -4 -5 -6 -3 -5 -3 -4 -4 -3 -3 -3 -4 -4 -3 -3 -4 -5 -5 -4 -4 -4 -4 -5 -6 -6 -7 -5 -4 -5 -5 -4 -5 -6 -6 -6 -7 -6 -6 -7 -8 -7 -7 -7 -7 -7 -7 -7 -7 -6
-3 -6 -7 -6 -5 -6 -6 -6 -5 -4 -4 -3 -3 -4 -5 -5 -5 -4 -4 -4 -5 -5 -5 -5 -4 -4 -5 -5 -6 -7 -8 -8 -6 -7 -8 -6 -6 -7 -7 -8 -8 -8 -9 -9 -9 -9 -9 -9 -9 -8 -8 -9 -8 -8
-5 -6 -6 -7 -7 -5 -6 -5 -5 -4 -4 -5 -5 -4 -5 -6 -4 -5 -4 -5 -5 -5 -6 -6 -5 -5 -5 -6 -6 -8 -9 -9 -8 -7 -9 -9 -8 -8 -8 -9 -9 -10 -10 -10 -9 -10 -10 -10 -10 -10 -10 -10 -9 -9
-6 -7 -6 -6 -5 -4 -5 -5 -6 -5 -5 -5 -5 -5 -5 -4 -4 -5 -5 -6 -6 -6 -7 -7 -6 -5 -7 -7 -7 -8 -9 -10 -10 -8 -10 -10 -10 -9 -9 -9 -9 -9 -11 -11 -11 -10 -10 -10 -10 -10 -10 -10 -9 -10
-6 -6 -5 -4 -4 -4 -4 -4 -4 -4 -6 -6 -4 -4 -4 -5 -5 -5 -6 -7 -7 -8 -9 -10 -9 -8 -8 -9 -9 -10 -10 -10 -10 -10 -10 -10 -10 -10 -10 -10 -11 -11 -11 -11 -11 -11 -11 -11 -11 -10 -10 -10 -10 -10
-6 -5 -5 -6 -5 -6 -6 -6 -7 -6 -5 -5 -4 -5 -4 -5 -5 -7 -7 -9 -10 -10 -10 -10 -10 -10 -11 -11 -11 -11 -10 -10 -10 -10 -10 -10 -10 -10 -11 -11 -10 -11 -11 -10 -10 -11 -11 -11 -11 -10 -10 -10 -10 -10
-6 -7 -6 -7 -7 -6 -7 -6 -7 -6 -6 -6 -5 -5 -6 -7 -8 -8 -9 -10 -10 -10 -10 -10 -11 -11 -11 -11 -11 -11 -11 -11 -11 -12 -11 -10 -11 -11 -11 -11 -10 -10 -10 -10 -10 -10 -10 -10 -9 -9 -10 -10 -10 -10
-8 -9 -7 -8 -8 -6 -7 -7 -7 -8 -7 -6 -6 -7 -7 -8 -10 -10 -10 -10 -10 -11 -11 -12 -11 -11 -12 -11 -12 -12 -12 -13 -13 -14 -13 -13 -12 -12 -11 -10 -10 -10 -10 -10 -10 -10 -10 -10 -10 -10 -11 -11 -11 -11
-10 -9 -9 -8 -8 -8 -10 -10 -10 -8 -8 -7 -7 -7 -7 -8 -10 -10 -10 -11 -11 -11 -11 -12 -12 -12 -12 -12 -12 -12 -12 -13 -13 -13 -14 -13 -12 -11 -11 -10 -10 -10 -10 -10 -10 -10 -10 -10 -11 -11 -11 -11 -11 -12
-10 -11 -9 -9 -9 -11 -11 -9 -8 -8 -8 -7 -7 -8 -8 -7 -7 -10 -11 -11 -11 -11 -11 -12 -12 -12 -12 -12 -12 -12 -13 -13 -13 -13 -13 -12 -11 -10 -10 -10 -10 -10 -10 -10 -10 -10 -10 -10 -11 -11 -11 -11 -11 -11
-14 -14 -15 -12 -11 -9 -11 -10 -9 -8 -8 -7 -8 -8 -7 -7 -7 -11 -12 -12 -12 -12 -12 -11 -11 -11 -11 -11 -12 -12 -13 -13 -13 -13 -13 -11 -11 -10 -10 -10 -11 -11 -11 -10 -10 -10 -10 -10 -11 -11 -11 -11 -12 -12
Height
787 784 782 780 778 777 775 773 771 768 766 763 760 758 760 764 770 775 772 780 784 767 763 758 760 758 754 752 747 759 764 769 773 765 756 749 743 740 746 737 740 740 741 740 741 741 736 735 736 733 736 736 734 733
778 775 773 772 771 770 767 763 760 756 752 746 742 741 742 745 751 760 754 767 774 774 754 752 754 754 754 753 748 752 744 745 744 746 752 748 747 747 737 727 745 743 735 731 733 728 735 737 737 739 739 736 737 735
772 770 769 768 765 763 759 754 749 743 736 729 723 716 710 708 713 727 734 753 763 763 755 748 744 747 748 748 750 744 744 741 744 742 743 746 742 740 739 737 735 738 743 738 736 735 735 735 737 739 739 739 741 741
771 770 766 763 760 756 751 744 737 730 720 710 700 687 680 678 682 693 709 727 743 749 745 730 737 741 741 743 744 746 743 743 744 743 740 741 741 740 738 743 740 740 744 736 734 734 737 739 739 741 740 742 742 743
769 766 762 758 754 749 742 735 727 716 703 692 678 663 654 648 653 670 693 711 725 734 729 727 733 734 734 738 739 740 740 738 738 741 740 738 744 741 744 747 737 738 732 733 727 736 735 738 742 743 741 741 742 743
765 761 757 753 748 742 734 726 714 702 691 678 664 654 640 629 635 662 688 707 712 723 729 725 726 727 731 734 737 737 738 738 736 730 737 741 748 742 738 734 734 737 741 744 739 745 744 744 745 747 745 746 745 745
762 757 754 748 742 733 724 717 706 695 683 668 657 655 647 643 646 657 671 680 701 717 726 720 723 728 729 733 736 737 738 738 735 737 738 739 746 742 740 735 738 742 744 746 748 747 743 745 745 749 749 749 749 749
758 754 748 741 734 728 721 711 700 687 674 661 654 657 658 663 670 673 678 683 694 712 714 708 716 728 726 725 731 735 735 736 740 737 742 739 749 745 735 735 743 745 745 745 749 752 752 751 750 749 750 749 749 749
754 749 743 738 732 724 715 705 693 680 666 654 650 658 665 670 672 676 683 687 693 704 703 703 702 698 716 719 726 733 730 732 739 732 734 740 741 736 728 738 744 747 749 750 752 751 750 750 750 751 751 750 749 750
750 746 742 736 729 720 710 700 689 677 663 655 653 660 661 666 669 675 687 694 689 690 695 691 700 699 708 715 717 721 719 725 727 734 742 739 732 738 741 743 747 750 752 753 754 751 753 753 753 752 752 752 752 752
748 744 739 733 725 716 707 696 688 675 663 660 662 665 667 666 669 676 683 685 688 685 689 689 688 690 705 695 702 713 719 724 723 734 734 734 728 736 742 744 749 751 752 753 754 755 755 755 754 754 753 753 753 754
745 740 735 729 722 714 704 693 686 678 673 672 670 669 669 670 673 672 669 674 672 671 678 681 687 690 701 701 708 718 722 729 720 734 729 722 732 743 744 747 749 752 753 753 754 754 754 754 754 754 755 755 756 757
742 737 731 727 720 711 701 691 685 682 674 670 669 669 670 673 667 660 663 670 674 678 684 686 690 695 704 707 713 716 717 720 727 727 719 724 739 744 748 750 751 753 755 756 755 754 754 754 755 755 756 757 758 759
740 734 729 724 718 709 700 691 684 680 677 677 675 675 678 682 682 684 679 681 692 690 686 684 686 690 699 700 707 707 729 725 721 721 722 735 742 747 751 753 752 755 756 757 756 755 756 756 757 757 758 759 759 761
737 731 727 722 715 707 699 692 687 685 686 687 688 690 696 700 699 694 689 688 690 685 684 687 693 694 702 707 711 721 727 717 715 720 735 743 748 751 754 755 754 756 757 756 757 757 758 759 759 760 760 761 761 763
736 730 726 720 712 705 698 692 689 688 694 697 700 701 703 700 702 700 699 697 700 698 697 695 698 701 711 709 710 709 709 712 727 735 742 747 752 755 758 758 758 758 757 757 758 759 760 761 762 763 764 764 764 765
736 734 729 721 712 704 699 694 694 703 708 711 715 715 715 716 715 715 710 709 708 704 704 703 703 714 717 711 719 724 723 729 737 742 746 750 755 758 760 760 759 758 758 759 760 761 762 763 764 765 766 767 768 768
737 733 729 722 714 707 704 704 708 714 721 726 721 725 720 721 718 719 718 715 711 712 714 719 721 719 720 719 728 736 738 742 745 749 752 756 759 761 763 763 763 762 762 763 763 763 763 763 765 766 767 768 768 769
738 734 729 723 716 714 714 717 718 725 733 732 730 730 728 727 728 727 723 720 718 717 719 725 729 731 735 737 741 744 747 749 750 753 758 760 762 764 766 767 766 764 764 764 764 764 765 766 768 768 769 769 770 770
738 734 729 724 720 720 724 728 728 729 732 737 736 736 736 736 735 732 728 725 723 724 732 737 744 748 748 751 753 753 756 757 756 756 761 765 766 767 768 768 768 768 767 767 767 766 767 768 770 771 771 771 771 771
738 735 731 728 726 728 735 738 736 739 739 741 744 740 740 738 738 736 736 735 737 748 749 753 754 756 758 759 760 761 762 761 762 763 764 765 768 769 770 771 769 769 768 768 769 769 770 771 772 772 772 772 772 772
742 740 736 735 736 738 743 747 746 745 743 748 748 746 746 747 747 748 749 745 754 759 759 760 761 762 762 764 767 768 768 767 767 768 769 769 769 770 770 771 771 771 772 773 773 773 773 773 773 773 773 772 772 771
744 742 742 742 742 744 754 751 748 753 748 752 752 752 753 754 756 755 754 759 766 769 768 767 767 767 768 770 771 772 771 771 771 772 772 773 773 774 775 775 775 775 775 776 776 775 776 776 775 775 774 773 772 771
746 748 752 753 753 757 756 757 756 755 755 754 754 759 762 762 763 761 764 768 772 772 771 771 770 770 771 773 774 776 776 775 775 775 775 775 776 777 777 778 778 779 779 778 778 778 778 777 776 775 774 773 772 772
754 760 759 763 762 759 760 760 761 755 760 763 761 761 764 768 763 768 768 773 774 775 775 775 774 774 774 777 779 780 780 779 778 778 779 779 779 779 780 780 781 781 780 779 778 778 777 776 775 775 774 773 772 771
763 765 762 764 762 759 762 762 765 765 764 765 764 766 766 764 765 771 772 776 777 779 780 780 778 777 780 781 781 782 783 782 781 780 781 781 781 781 781 781 781 781 781 780 779 778 777 776 775 773 772 770 770 769
765 765 762 762 761 762 762 763 764 763 770 769 765 764 765 769 770 776 779 781 781 783 783 782 782 782 783 784 784 785 784 782 781 782 781 781 781 782 783 783 783 782 779 778 777 776 775 773 772 770 770 768 766 766
765 764 764 766 765 767 767 770 771 771 767 769 767 767 766 768 771 779 781 783 783 783 784 784 784 784 785 785 785 785 784 783 782 782 782 782 783 783 783 784 781 779 776 775 773 773 772 771 769 767 766 765 763 763
768 769 768 770 769 769 771 771 772 772 774 772 769 771 776 780 782 782 783 783 783 784 785 785 786 786 786 786 786 786 786 785 785 785 785 784 784 784 783 781 779 776 775 773 772 771 769 767 765 764 762 761 760 759
772 773 769 774 775 769 773 775 775 777 777 776 776 778 780 783 785 785 785 785 786 787 787 787 787 787 788 788 789 789 788 788 787 788 787 786 786 784 781 779 777 775 773 771 769 767 765 763 762 761 759 758 757 756
777 774 774 774 774 776 778 779 778 777 778 777 778 777 780 783 786 787 788 788 789 789 789 789 789 789 789 789 789 789 790 790 789 788 787 786 784 782 779 777 775 773 771 769 767 765 763 761 760 759 758 756 755 754
778 779 776 777 777 780 780 778 777 776 777 777 778 780 782 782 783 788 789 790 790 791 791 791 791 791 791 791 791 791 792 790 788 787 786 784 781 779 777 774 772 770 768 767 765 763 762 760 759 757 756 754 753 752
786 786 787 782 780 778 782 781 779 778 779 778 779 781 780 780 781 790 790 790 792 792 792 792 791 791 791 792 793 792 792 790 788 787 784 783 780 778 775 772 769 768 766 764 762 761 759 757 756 754 753 752 750 749
Wind_Speed
28 28 28 27 23 20 21 24 28 32 35 41 45 43 43 45 46 37 36 37 34 9 12 18 25 16 6 9 11 6 5 4 4 6 4 4 4 4 3 1 3 5 4 4 2 3 2 1 2 4 4 3 2 6
26 23 19 19 21 20 25 28 31 34 40 46 41 43 50 56 56 51 41 40 38 17 4 28 31 18 10 6 6 8 4 4 6 5 3 1 2 3 2 2 2 2 3 2 3 2 2 0 2 2 3 4 3 5
14 11 12 15 18 22 26 29 34 37 44 42 44 52 52 53 64 71 55 41 34 15 7 8 10 17 18 14 8 5 4 4 4 0 3 1 3 2 3 4 2 3 2 2 3 2 2 1 2 2 3 2 2 1
14 13 15 18 21 25 28 31 36 38 42 42 52 54 44 46 49 66 55 45 41 6 6 5 18 6 9 12 11 9 1 4 5 2 2 2 3 3 1 1 2 2 4 2 4 2 1 3 3 4 2 1 1 2
16 17 19 21 23 26 29 32 38 38 42 44 55 38 41 37 41 62 53 43 47 15 6 6 4 9 8 10 11 8 11 6 3 3 2 3 1 2 2 1 4 5 2 3 1 4 3 5 4 6 5 5 3 0
16 19 21 23 25 27 30 34 37 39 42 46 46 26 27 25 51 48 7 31 45 39 2 5 2 6 10 12 11 10 5 2 1 3 2 2 1 2 3 3 4 3 2 2 2 5 3 4 2 5 4 5 5 4
17 20 23 25 26 29 32 35 37 39 41 43 25 8 11 35 44 18 6 14 45 37 4 2 3 3 14 11 3 3 2 1 1 2 2 3 2 2 1 3 5 3 2 2 3 4 2 3 3 6 5 4 3 3
18 21 23 25 27 29 32 34 37 36 40 34 13 16 23 30 26 12 7 24 50 16 3 3 3 3 8 5 3 2 3 2 1 3 3 3 2 1 4 4 3 3 3 3 3 4 4 7 7 4 3 3 2 1
18 21 24 26 28 30 32 35 36 37 37 30 12 23 17 14 4 7 15 23 38 9 4 3 6 4 3 3 3 4 4 4 1 3 3 3 3 5 2 5 2 3 2 3 6 6 3 1 3 4 4 2 2 2
18 20 23 26 29 31 33 34 33 37 23 7 14 5 2 3 29 26 7 2 2 1 2 0 3 4 4 3 3 4 1 4 3 3 4 3 3 5 5 4 1 2 1 2 2 2 3 2 4 4 4 3 2 1
19 21 23 26 29 33 33 32 30 33 14 8 2 2 1 9 4 3 3 4 4 3 3 3 2 6 1 2 3 2 3 3 3 4 5 5 3 4 4 3 2 2 1 1 1 2 1 2 3 4 3 2 3 4
20 23 24 25 28 34 34 31 26 19 14 9 6 3 3 3 2 4 3 4 3 3 1 4 2 4 3 2 4 1 3 3 3 6 4 4 2 5 4 4 4 2 2 1 1 1 3 3 3 3 3 3 3 3
21 24 25 24 28 35 34 30 24 16 15 4 4 2 2 3 2 1 4 3 3 2 2 3 4 4 4 2 4 3 3 2 7 3 2 2 6 5 5 3 5 3 2 3 3 5 5 6 6 6 5 5 4 5
22 24 23 23 32 35 32 27 20 11 7 4 5 5 5 4 5 4 4 3 1 3 5 4 3 3 2 3 3 4 3 5 4 4 3 4 6 6 5 4 4 4 4 4 4 6 6 6 6 7 6 4 4 6
23 24 16 27 35 35 29 22 14 6 4 4 3 4 5 4 5 5 5 3 5 3 3 3 3 3 3 3 2 4 3 3 2 1 3 6 6 6 5 4 6 5 4 4 6 6 6 6 5 6 6 5 5 6
23 16 14 32 35 34 24 12 8 5 3 4 6 4 2 5 8 8 7 7 6 3 2 2 3 3 3 2 3 2 6 3 3 4 6 7 7 6 5 4 5 6 7 8 7 7 6 6 5 3 3 4 4 4
15 7 26 31 34 25 19 5 6 5 4 5 4 6 5 4 5 5 5 5 4 2 3 2 4 5 1 2 2 3 2 5 8 6 5 7 7 6 5 6 8 8 8 8 6 7 5 3 3 2 2 2 2 1
6 20 25 29 30 14 8 12 3 4 6 4 4 4 5 5 3 4 5 6 4 2 2 3 2 3 4 2 3 3 6 7 6 6 5 6 6 8 8 6 7 7 7 5 4 4 4 4 3 3 2 2 1 1
13 18 24 26 22 6 4 6 6 4 4 2 2 3 2 2 4 5 5 5 4 3 3 2 4 3 3 4 7 7 6 5 6 5 5 9 9 8 7 6 7 8 7 6 6 5 4 5 4 4 3 3 3 3
14 14 23 22 16 5 4 4 6 3 4 3 3 4 2 2 4 4 6 6 3 3 5 4 4 3 3 4 6 5 5 4 2 4 5 4 6 6 7 6 5 5 4 5 7 7 7 7 9 8 7 5 4 4
10 16 14 16 8 10 4 3 4 3 2 2 3 3 2 3 4 6 5 6 4 3 3 3 4 5 8 9 10 8 9 8 4 3 3 2 5 4 3 5 7 7 7 8 7 8 9 8 8 8 8 6 6 5
8 13 8 9 6 4 3 7 2 3 2 1 2 3 3 3 4 4 5 5 3 3 3 3 4 4 5 6 8 9 7 5 6 6 7 5 2 3 5 7 7 7 8 8 8 8 8 8 9 9 8 8 8 7
6 6 4 9 4 5 2 5 2 4 3 2 0 2 3 2 3 4 3 3 3 5 5 4 4 4 8 8 8 11 12 9 7 7 7 6 6 6 5 6 7 6 5 6 6 6 6 7 7 7 7 7 7 7
5 4 4 3 4 2 2 4 2 2 2 2 2 2 2 2 4 3 3 2 2 4 4 6 4 5 7 8 5 8 10 9 6 6 7 6 5 6 6 5 6 6 5 4 4 4 5 6 7 7 7 7 7 7
4 5 3 4 2 3 4 3 3 3 2 3 2 2 2 1 1 2 2 1 2 3 4 6 8 6 4 4 4 5 7 8 6 3 5 6 4 3 5 5 4 3 5 7 7 7 7 7 6 6 7 7 8 9
4 3 3 1 2 2 1 2 2 2 2 2 2 1 0 1 2 2 2 2 2 2 3 4 3 3 4 5 3 3 5 8 4 2 3 5 5 5 4 3 4 3 6 7 7 8 9 8 8 10 9 8 10 10
2 2 2 1 1 1 1 2 1 1 2 1 1 1 1 2 2 2 2 2 2 3 3 4 5 5 4 3 3 3 4 9 4 1 1 1 4 4 4 5 6 7 10 9 9 9 10 11 11 11 12 13 12 12
2 2 1 1 2 2 1 1 1 1 1 1 1 1 1 2 2 2 2 3 4 5 5 6 5 5 4 5 5 5 6 9 5 3 4 4 3 4 4 10 10 10 10 11 11 13 12 13 14 16 17 15 15 12
2 1 0 2 1 2 1 1 1 1 2 1 1 1 1 2 2 2 2 3 4 4 3 3 5 6 6 7 7 7 11 14 8 4 3 2 3 2 12 14 14 14 14 13 11 10 11 12 15 14 11 11 14 14
2 3 1 2 2 1 2 2 1 1 1 1 1 2 2 2 2 4 4 4 4 5 5 5 5 5 5 3 4 5 6 9 13 7 3 3 6 14 15 16 17 16 15 14 14 14 11 8 10 10 10 9 9 9
2 1 1 1 1 1 2 2 2 0 1 1 1 1 2 2 3 3 5 6 6 6 5 5 5 6 6 7 7 5 4 5 12 10 7 10 13 15 16 16 16 15 15 13 13 13 12 10 9 9 9 8 8 7
2 2 1 1 1 1 1 1 1 0 1 1 1 1 2 2 2 2 3 4 3 4 5 5 4 3 3 3 5 6 5 11 13 11 13 14 16 17 18 16 16 15 13 13 12 11 11 9 9 9 10 10 10 10
1 1 1 1 1 1 2 1 1 1 0 1 1 1 1 1 2 2 1 4 2 0 4 4 3 2 2 4 4 7 11 13 12 12 12 13 13 15 16 16 15 13 13 12 11 11 11 10 11 11 10 10 10 9
Wind_Direction
288 285 285 282 278 278 284 287 289 289 287 285 280 274 262 252 239 239 248 239 230 237 238 235 242 247 259 238 230 123 140 188 170 200 212 229 222 171 243 212 191 202 199 207 199 240 235 45 167 330 8 58 96 183
294 280 288 282 284 288 291 293 295 294 296 290 282 273 270 259 245 239 244 236 232 240 283 220 247 254 238 276 279 182 334 161 168 183 205 270 203 155 274 230 187 237 250 326 247 29 70 70 47 55 9 26 51 161
342 321 309 306 302 301 300 301 301 299 301 290 288 286 275 258 244 230 227 218 216 222 251 230 219 226 230 226 223 225 207 177 196 93 135 211 215 155 210 228 227 209 182 255 305 114 200 149 177 261 314 357 46 37
317 320 317 312 309 307 308 308 308 304 305 299 299 301 277 266 247 218 206 202 206 199 242 214 213 208 206 214 206 234 281 127 117 181 148 185 250 177 163 26 261 49 147 226 267 199 126 78 79 28 26 11 27 60
318 318 319 316 314 313 313 314 314 310 314 308 307 293 289 269 235 198 191 192 193 186 208 189 158 209 188 203 202 202 181 159 170 158 165 184 73 179 123 173 236 179 187 210 38 56 347 83 47 7 0 18 31 159
321 322 321 320 318 318 318 320 320 318 320 313 318 292 285 264 179 158 157 197 196 202 30 183 66 167 164 176 183 172 171 143 167 158 154 121 353 266 172 208 114 130 77 40 59 351 351 350 24 33 7 0 351 331
324 325 321 321 322 325 326 326 322 321 320 317 314 252 137 146 150 151 146 161 182 185 207 162 182 197 154 139 149 136 140 139 232 134 148 142 177 240 173 229 130 109 58 6 57 326 231 53 42 341 335 332 336 342
326 327 329 331 332 330 329 328 326 327 323 318 257 180 165 165 161 185 105 163 171 182 203 208 96 189 197 144 137 186 150 142 244 128 138 154 136 232 232 132 105 68 329 136 90 10 306 309 313 326 330 324 291 266
330 334 337 337 335 333 333 332 331 330 326 327 184 176 166 181 167 135 186 165 168 183 175 185 179 169 160 105 132 173 206 171 179 129 145 170 159 222 127 134 116 57 50 327 324 300 300 323 3 7 358 355 290 137
330 331 336 337 337 339 337 334 338 335 327 357 114 62 96 142 127 115 71 164 51 200 170 177 185 131 161 159 140 150 226 128 149 103 124 202 235 107 111 95 38 5 23 360 9 81 26 25 8 351 350 354 1 77
326 326 329 335 338 342 338 337 343 341 358 12 45 78 152 122 82 79 147 171 179 166 206 158 116 125 211 131 103 52 132 138 145 158 192 184 235 134 121 107 62 6 7 32 273 293 280 279 303 325 348 28 64 91
326 328 330 332 336 341 340 338 345 347 339 314 316 66 54 60 120 164 191 153 180 154 126 109 113 94 77 42 74 58 105 209 151 150 184 191 95 102 103 88 73 26 10 87 92 28 19 25 20 14 24 45 54 91
326 328 329 332 337 341 341 337 341 336 334 345 15 61 360 356 88 60 124 93 94 67 126 152 125 121 130 146 103 139 150 105 135 176 185 61 117 101 88 89 84 64 81 69 71 63 54 49 49 46 68 62 75 89
326 327 327 335 339 341 341 339 342 355 14 27 5 32 34 24 24 12 11 57 116 153 114 90 70 64 76 75 104 97 81 158 164 190 206 127 120 105 98 91 105 82 69 79 67 54 51 42 48 56 63 73 99 109
329 329 326 341 341 341 339 343 346 34 44 39 3 50 43 39 31 11 17 28 2 356 43 70 65 59 62 96 69 119 148 165 190 132 95 117 112 111 108 96 89 80 67 53 49 52 52 45 46 59 49 62 86 105
333 331 338 341 339 340 342 348 8 33 57 30 34 58 127 36 24 21 22 32 8 2 4 31 92 101 85 113 152 143 156 163 125 108 113 117 111 103 105 98 91 76 65 60 54 48 50 48 44 50 67 79 91 107
337 342 338 341 341 346 355 14 28 44 44 27 29 26 59 58 55 34 24 1 330 12 51 31 60 46 99 104 82 14 47 101 110 105 99 103 102 94 83 66 54 48 48 45 43 44 50 35 44 50 53 58 66 90
322 334 343 344 349 353 4 23 64 58 63 32 46 5 19 21 5 33 16 5 16 60 26 58 32 53 28 55 80 86 86 85 91 102 97 94 90 75 60 55 44 42 35 32 41 49 45 42 47 49 28 2 348 328
322 330 341 348 352 356 25 28 16 79 50 18 17 5 351 20 33 2 5 12 25 43 100 59 52 40 55 52 92 90 84 76 86 72 74 77 80 77 69 58 52 44 38 37 36 46 48 50 47 39 34 39 42 38
326 334 345 355 14 36 48 29 11 52 44 9 11 16 17 13 340 350 15 14 15 35 43 46 45 29 39 38 34 51 50 46 60 117 102 98 82 85 61 47 36 25 57 70 72 64 68 83 52 40 33 30 26 25
334 347 351 7 28 48 58 358 48 35 9 46 358 10 24 1 16 15 8 346 58 34 65 40 61 62 66 59 43 52 43 39 48 38 51 91 75 77 64 40 43 42 50 45 45 44 47 40 19 11 10 18 11 354
348 348 3 17 46 37 69 20 12 341 17 37 40 10 26 22 13 13 323 38 52 32 28 36 41 27 49 53 49 44 24 41 59 67 47 41 53 37 35 26 34 43 49 38 32 29 26 17 9 1 4 358 355 348
348 8 29 15 52 33 25 351 47 10 41 26 347 46 41 36 11 315 63 54 74 24 3 10 8 23 97 85 67 48 37 39 51 45 38 42 69 53 55 48 42 43 50 38 26 23 15 2 359 354 344 342 337 330
5 44 35 34 17 41 334 25 24 27 45 30 46 55 21 358 331 38 70 57 52 25 24 5 350 98 85 65 51 36 17 14 31 53 34 31 53 46 47 56 58 59 48 21 14 4 351 344 341 340 338 332 327 319
56 357 29 10 1 34 37 23 0 28 53 29 55 67 53 290 52 49 59 75 51 43 26 35 53 53 86 92 76 58 24 20 17 30 32 29 35 73 75 70 63 64 26 12 1 347 340 336 333 328 324 313 310 308
67 334 34 43 357 49 45 62 40 36 38 34 51 63 210 73 70 70 67 48 57 41 32 29 24 72 66 44 50 44 17 6 10 53 49 45 41 36 41 41 19 35 357 350 335 328 322 320 315 317 314 315 314 316
74 43 67 36 25 91 72 55 26 64 70 59 41 33 56 71 86 96 111 42 78 67 60 49 42 57 70 63 57 28 15 5 8 346 10 67 12 24 64 24 346 319 328 325 314 306 303 308 307 307 304 308 311 307
52 14 53 33 67 16 94 43 62 75 74 8 300 51 59 42 79 68 59 90 110 111 88 70 71 73 75 59 49 47 29 22 40 83 64 56 58 108 24 343 339 335 328 323 319 308 300 293 293 296 295 291 296 306
77 10 242 81 75 68 70 68 88 62 15 336 31 75 81 48 24 48 73 105 121 105 89 83 59 71 82 69 67 71 51 43 46 49 38 17 355 2 337 343 344 345 339 331 329 312 303 299 299 300 304 290 293 298
31 344 61 69 88 80 78 10 73 51 360 28 90 120 107 86 64 85 107 107 100 90 88 83 81 82 78 91 74 65 62 44 35 32 344 321 308 323 333 337 338 338 337 333 330 330 328 322 314 316 315 307 300 303
351 317 73 45 84 62 36 339 301 258 29 69 30 74 99 122 103 87 111 109 100 91 78 72 76 65 72 63 54 45 43 11 357 355 339 320 321 326 331 331 332 330 330 329 327 327 326 326 326 322 325 327 326 313
357 47 118 114 138 357 355 13 44 66 104 140 104 101 142 148 137 136 156 136 85 64 49 37 50 58 51 96 50 35 5 347 349 353 349 340 334 333 331 331 327 322 321 320 319 316 318 314 315 316 317 320 324 325
58 37 14 33 106 138 40 16 55 121 127 156 99 13 55 7 121 98 141 196 187 107 355 346 353 55 112 116 58 27 7 1 358 344 339 336 330 331 330 327 324 325 319 317 319 318 315 311 314 318 316 314 319 321